Year,Month,Day,Hour,Minute,Value (Times are PST for temperature in C)
2012,07,19,07,32,13.40
2012,07,19,07,33,13.50
2012,07,19,07,34,13.50
2012,07,19,07,35,13.60
2012,07,19,07,36,13.60
2012,07,19,07,37,13.70
2012,07,19,07,38,13.70
2012,07,19,07,39,13.80
2012,07,19,07,40,13.80
2012,07,19,07,41,13.90
2012,07,19,07,42,13.90
2012,07,19,07,43,14.00
2012,07,19,07,44,14.00
2012,07,19,07,45,14.10
2012,07,19,07,46,14.10
2012,07,19,07,47,14.10
2012,07,19,07,48,14.10
2012,07,19,07,49,14.10
2012,07,19,07,50,14.20
2012,07,19,07,51,14.30
2012,07,19,07,52,14.50
2012,07,19,07,53,14.60
2012,07,19,07,54,14.60
2012,07,19,07,55,14.70
2012,07,19,07,56,14.70
2012,07,19,07,57,14.70
2012,07,19,07,58,14.70
2012,07,19,07,59,14.70
2012,07,19,08,00,14.70
2012,07,19,08,01,14.70
2012,07,19,08,02,14.70
2012,07,19,08,03,14.70
2012,07,19,08,04,14.70
2012,07,19,08,05,14.70
2012,07,19,08,06,14.70
2012,07,19,08,07,14.70
2012,07,19,08,08,14.70
2012,07,19,08,09,14.70
2012,07,19,08,10,14.80
2012,07,19,08,11,14.80
2012,07,19,08,12,14.80
2012,07,19,08,13,14.70
2012,07,19,08,14,14.70
2012,07,19,08,15,14.70
2012,07,19,08,16,14.70
2012,07,19,08,17,14.70
2012,07,19,08,18,14.70
2012,07,19,08,19,14.70
2012,07,19,08,20,14.70
2012,07,19,08,21,14.60
2012,07,19,08,22,14.60
2012,07,19,08,23,14.60
2012,07,19,08,24,14.60
2012,07,19,08,25,14.60
2012,07,19,08,26,14.60
2012,07,19,08,27,14.60
2012,07,19,08,28,14.70
2012,07,19,08,29,14.70
2012,07,19,08,30,14.70
2012,07,19,08,31,14.80
2012,07,19,08,32,14.80
2012,07,19,08,33,14.80
2012,07,19,08,34,14.80
2012,07,19,08,35,14.80
2012,07,19,08,36,14.80
2012,07,19,08,37,14.80
2012,07,19,08,38,14.90
2012,07,19,08,39,14.90
2012,07,19,08,40,14.90
2012,07,19,08,41,14.90
2012,07,19,08,42,14.90
2012,07,19,08,43,15.00
2012,07,19,08,44,15.00
2012,07,19,08,45,15.00
2012,07,19,08,46,15.00
2012,07,19,08,47,15.00
2012,07,19,08,48,15.00
2012,07,19,08,49,15.10
2012,07,19,08,50,15.20
2012,07,19,08,51,15.20
2012,07,19,08,52,15.30
2012,07,19,08,53,15.30
2012,07,19,08,54,15.30
2012,07,19,08,55,15.40
2012,07,19,08,56,15.50
2012,07,19,08,57,15.50
2012,07,19,08,58,15.60
2012,07,19,08,59,15.60
2012,07,19,09,00,15.60
2012,07,19,09,01,15.70
2012,07,19,09,02,15.70
2012,07,19,09,03,15.80
2012,07,19,09,04,15.80
2012,07,19,09,05,15.90
2012,07,19,09,06,15.90
2012,07,19,09,07,15.90
2012,07,19,09,08,15.90
2012,07,19,09,09,15.90
2012,07,19,09,10,15.90
2012,07,19,09,11,15.90
2012,07,19,09,12,15.90
2012,07,19,09,13,15.90
2012,07,19,09,14,16.00
2012,07,19,09,15,16.00
2012,07,19,09,16,16.10
2012,07,19,09,17,16.10
2012,07,19,09,18,16.10
2012,07,19,09,19,16.10
2012,07,19,09,20,16.10
2012,07,19,09,21,16.10
2012,07,19,09,22,16.20
2012,07,19,09,23,16.30
2012,07,19,09,24,16.30
2012,07,19,09,25,16.30
2012,07,19,09,26,16.30
2012,07,19,09,27,16.30
2012,07,19,09,28,16.40
2012,07,19,09,29,16.40
2012,07,19,09,30,16.40
2012,07,19,09,31,16.50
2012,07,19,09,32,16.50
2012,07,19,09,33,16.50
2012,07,19,09,34,16.60
2012,07,19,09,35,16.60
2012,07,19,09,36,16.60
2012,07,19,09,37,16.70
2012,07,19,09,38,16.70
2012,07,19,09,39,16.70
2012,07,19,09,40,16.80
2012,07,19,09,41,16.80
2012,07,19,09,42,16.80
2012,07,19,09,43,16.90
2012,07,19,09,44,17.00
2012,07,19,09,45,17.10
2012,07,19,09,46,17.20
2012,07,19,09,47,17.20
2012,07,19,09,48,17.30
2012,07,19,09,49,17.30
2012,07,19,09,50,17.30
2012,07,19,09,51,17.40
2012,07,19,09,52,17.40
2012,07,19,09,53,17.40
2012,07,19,09,54,17.50
2012,07,19,09,55,17.50
2012,07,19,09,56,17.50
2012,07,19,09,57,17.60
2012,07,19,09,58,17.70
2012,07,19,09,59,17.70
2012,07,19,10,00,17.80
2012,07,19,10,01,17.90
2012,07,19,10,02,18.00
2012,07,19,10,03,18.10
2012,07,19,10,04,18.20
2012,07,19,10,05,18.20
2012,07,19,10,06,18.20
2012,07,19,10,07,18.30
2012,07,19,10,08,18.30
2012,07,19,10,09,18.20
2012,07,19,10,10,18.20
2012,07,19,10,11,18.20
2012,07,19,10,12,18.30
2012,07,19,10,13,18.30
2012,07,19,10,14,18.30
2012,07,19,10,15,18.30
2012,07,19,10,16,18.30
2012,07,19,10,17,18.30
2012,07,19,10,18,18.40
2012,07,19,10,19,18.50
2012,07,19,10,20,18.60
2012,07,19,10,21,18.70
2012,07,19,10,22,18.80
2012,07,19,10,23,18.90
2012,07,19,10,24,18.90
2012,07,19,10,25,18.90
2012,07,19,10,26,19.00
2012,07,19,10,27,19.10
2012,07,19,10,28,19.20
2012,07,19,10,29,19.30
2012,07,19,10,30,19.30
2012,07,19,10,31,19.20
2012,07,19,10,32,19.30
2012,07,19,10,33,19.30
2012,07,19,10,34,19.30
2012,07,19,10,35,19.30
2012,07,19,10,36,19.30
2012,07,19,10,37,19.30
2012,07,19,10,38,19.30
2012,07,19,10,39,19.30
2012,07,19,10,40,19.40
2012,07,19,10,41,19.30
2012,07,19,10,42,19.30
2012,07,19,10,43,19.20
2012,07,19,10,44,19.00
2012,07,19,10,45,18.90
2012,07,19,10,46,18.90
2012,07,19,10,47,18.90
2012,07,19,10,48,19.00
2012,07,19,10,49,19.20
2012,07,19,10,50,19.30
2012,07,19,10,51,19.40
2012,07,19,10,52,19.60
2012,07,19,10,53,19.70
2012,07,19,10,54,19.70
2012,07,19,10,55,19.70
2012,07,19,10,56,19.70
2012,07,19,10,57,19.70
2012,07,19,10,58,19.80
2012,07,19,10,59,19.80
2012,07,19,11,00,19.90
2012,07,19,11,01,20.00
2012,07,19,11,02,20.20
2012,07,19,11,03,20.40
2012,07,19,11,04,20.60
2012,07,19,11,05,20.70
2012,07,19,11,06,20.80
2012,07,19,11,07,20.80
2012,07,19,11,08,20.80
2012,07,19,11,09,20.80
2012,07,19,11,10,20.60
2012,07,19,11,11,20.50
2012,07,19,11,12,20.30
2012,07,19,11,13,20.20
2012,07,19,11,14,20.10
2012,07,19,11,15,20.00
2012,07,19,11,16,19.90
2012,07,19,11,17,20.00
2012,07,19,11,18,20.10
2012,07,19,11,19,20.20
2012,07,19,11,20,20.40
2012,07,19,11,21,20.70
2012,07,19,11,22,20.80
2012,07,19,11,23,20.80
2012,07,19,11,24,20.90
2012,07,19,11,25,21.00
2012,07,19,11,26,21.10
2012,07,19,11,27,21.30
2012,07,19,11,28,21.30
2012,07,19,11,29,21.30
2012,07,19,11,30,21.20
2012,07,19,11,31,21.10
2012,07,19,11,32,20.90
2012,07,19,11,33,20.90
2012,07,19,11,34,20.80
2012,07,19,11,35,20.80
2012,07,19,11,36,20.90
2012,07,19,11,37,21.10
2012,07,19,11,38,21.10
2012,07,19,11,39,21.00
2012,07,19,11,40,21.00
2012,07,19,11,41,20.90
2012,07,19,11,42,21.00
2012,07,19,11,43,21.00
2012,07,19,11,44,21.10
2012,07,19,11,45,21.00
2012,07,19,11,46,21.00
2012,07,19,11,47,21.00
2012,07,19,11,48,21.00
2012,07,19,11,49,21.00
2012,07,19,11,50,21.10
2012,07,19,11,51,21.00
2012,07,19,11,52,21.00
2012,07,19,11,53,21.00
2012,07,19,11,54,21.10
2012,07,19,11,55,21.20
2012,07,19,11,56,21.20
2012,07,19,11,57,21.20
2012,07,19,11,58,21.20
2012,07,19,11,59,21.10
2012,07,19,12,00,21.00
2012,07,19,12,01,20.90
2012,07,19,12,02,20.70
2012,07,19,12,03,20.70
2012,07,19,12,04,20.70
2012,07,19,12,05,20.90
2012,07,19,12,06,20.90
2012,07,19,12,07,21.00
2012,07,19,12,08,21.10
2012,07,19,12,09,21.30
2012,07,19,12,10,21.40
2012,07,19,12,11,21.60
2012,07,19,12,12,21.60
2012,07,19,12,13,21.50
2012,07,19,12,14,21.40
2012,07,19,12,15,21.30
2012,07,19,12,16,21.20
2012,07,19,12,17,21.20
2012,07,19,12,18,21.30
2012,07,19,12,19,21.30
2012,07,19,12,20,21.50
2012,07,19,12,21,21.60
2012,07,19,12,22,21.80
2012,07,19,12,23,21.90
2012,07,19,12,24,22.10
2012,07,19,12,25,22.20
2012,07,19,12,26,22.10
2012,07,19,12,27,22.00
2012,07,19,12,28,22.00
2012,07,19,12,29,22.00
2012,07,19,12,30,21.90
2012,07,19,12,31,21.80
2012,07,19,12,32,21.90
2012,07,19,12,33,22.00
2012,07,19,12,34,22.10
2012,07,19,12,35,22.20
2012,07,19,12,36,22.20
2012,07,19,12,37,22.10
2012,07,19,12,38,21.90
2012,07,19,12,39,21.80
2012,07,19,12,40,21.80
2012,07,19,12,41,21.80
2012,07,19,12,42,21.80
2012,07,19,12,43,21.80
2012,07,19,12,44,21.80
2012,07,19,12,45,21.90
2012,07,19,12,46,22.00
2012,07,19,12,47,22.00
2012,07,19,12,48,22.00
2012,07,19,12,49,22.10
2012,07,19,12,50,22.20
2012,07,19,12,51,22.20
2012,07,19,12,52,22.20
2012,07,19,12,53,22.20
2012,07,19,12,54,22.20
2012,07,19,12,55,22.20
2012,07,19,12,56,22.20
2012,07,19,12,57,22.20
2012,07,19,12,58,22.10
2012,07,19,12,59,22.10
2012,07,19,13,00,22.00
2012,07,19,13,01,21.90
2012,07,19,13,02,21.80
2012,07,19,13,03,21.90
2012,07,19,13,04,21.80
2012,07,19,13,05,21.80
2012,07,19,13,06,21.60
2012,07,19,13,07,21.50
2012,07,19,13,08,21.50
2012,07,19,13,09,21.60
2012,07,19,13,10,21.60
2012,07,19,13,11,21.60
2012,07,19,13,12,21.60
2012,07,19,13,13,21.60
2012,07,19,13,14,21.60
2012,07,19,13,15,21.60
2012,07,19,13,16,21.70
2012,07,19,13,17,21.70
2012,07,19,13,18,21.70
2012,07,19,13,19,21.70
2012,07,19,13,20,21.70
2012,07,19,13,21,21.70
2012,07,19,13,22,21.60
2012,07,19,13,23,21.60
2012,07,19,13,24,21.60
2012,07,19,13,25,21.50
2012,07,19,13,26,21.50
2012,07,19,13,27,21.40
2012,07,19,13,28,21.40
2012,07,19,13,29,21.60
2012,07,19,13,30,21.70
2012,07,19,13,31,21.80
2012,07,19,13,32,22.00
2012,07,19,13,33,22.10
2012,07,19,13,34,22.20
2012,07,19,13,35,22.20
2012,07,19,13,36,22.20
2012,07,19,13,37,22.20
2012,07,19,13,38,22.30
2012,07,19,13,39,22.30
2012,07,19,13,40,22.30
2012,07,19,13,41,22.40
2012,07,19,13,42,22.40
2012,07,19,13,43,22.40
2012,07,19,13,44,22.30
2012,07,19,13,45,22.20
2012,07,19,13,46,22.10
2012,07,19,13,47,22.10
2012,07,19,13,48,22.10
2012,07,19,13,49,22.10
2012,07,19,13,50,22.20
2012,07,19,13,51,22.20
2012,07,19,13,52,22.30
2012,07,19,13,53,22.40
2012,07,19,13,54,22.40
2012,07,19,13,55,22.20
2012,07,19,13,56,22.10
2012,07,19,13,57,22.00
2012,07,19,13,58,21.90
2012,07,19,13,59,22.00
2012,07,19,14,00,22.00
2012,07,19,14,01,22.10
2012,07,19,14,02,22.00
2012,07,19,14,03,21.90
2012,07,19,14,04,21.80
2012,07,19,14,05,21.80
2012,07,19,14,06,22.00
2012,07,19,14,07,22.10
2012,07,19,14,08,22.20
2012,07,19,14,09,22.20
2012,07,19,14,10,22.20
2012,07,19,14,11,22.10
2012,07,19,14,12,22.20
2012,07,19,14,13,22.30
2012,07,19,14,14,22.50
2012,07,19,14,15,22.60
2012,07,19,14,16,22.70
2012,07,19,14,17,22.80
2012,07,19,14,18,22.70
2012,07,19,14,19,22.60
2012,07,19,14,20,22.40
2012,07,19,14,21,22.30
2012,07,19,14,22,22.30
2012,07,19,14,23,22.30
2012,07,19,14,24,22.20
2012,07,19,14,25,22.30
2012,07,19,14,26,22.30
2012,07,19,14,27,22.50
2012,07,19,14,28,22.60
2012,07,19,14,29,22.70
2012,07,19,14,30,22.60
2012,07,19,14,31,22.60
2012,07,19,14,32,22.70
2012,07,19,14,33,22.70
2012,07,19,14,34,22.70
2012,07,19,14,35,22.80
2012,07,19,14,36,23.00
2012,07,19,14,37,23.10
2012,07,19,14,38,23.20
2012,07,19,14,39,23.30
2012,07,19,14,40,23.30
2012,07,19,14,41,23.30
2012,07,19,14,42,23.40
2012,07,19,14,43,23.30
2012,07,19,14,44,23.20
2012,07,19,14,45,23.20
2012,07,19,14,46,23.20
2012,07,19,14,47,23.10
2012,07,19,14,48,23.10
2012,07,19,14,49,23.00
2012,07,19,14,50,22.90
2012,07,19,14,51,22.90
2012,07,19,14,52,22.80
2012,07,19,14,53,22.80
2012,07,19,14,54,22.90
2012,07,19,14,55,23.00
2012,07,19,14,56,23.00
2012,07,19,14,57,22.90
2012,07,19,14,58,22.80
2012,07,19,14,59,22.70
2012,07,19,15,00,22.70
2012,07,19,15,01,22.60
2012,07,19,15,02,22.60
2012,07,19,15,03,22.60
2012,07,19,15,04,22.60
2012,07,19,15,05,22.70
2012,07,19,15,06,22.70
2012,07,19,15,07,22.70
2012,07,19,15,08,22.60
2012,07,19,15,09,22.60
2012,07,19,15,10,22.60
2012,07,19,15,11,22.60
2012,07,19,15,12,22.60
2012,07,19,15,13,22.60
2012,07,19,15,14,22.60
2012,07,19,15,15,22.70
2012,07,19,15,16,22.70
2012,07,19,15,17,22.60
2012,07,19,15,18,22.60
2012,07,19,15,19,22.70
2012,07,19,15,20,22.80
2012,07,19,15,21,22.80
2012,07,19,15,22,22.90
2012,07,19,15,23,23.00
2012,07,19,15,24,23.10
2012,07,19,15,25,23.20
2012,07,19,15,26,23.10
2012,07,19,15,27,23.10
2012,07,19,15,28,23.10
2012,07,19,15,29,23.10
2012,07,19,15,30,23.10
2012,07,19,15,31,23.20
2012,07,19,15,32,23.30
2012,07,19,15,33,23.30
2012,07,19,15,34,23.20
2012,07,19,15,35,23.20
2012,07,19,15,36,23.10
2012,07,19,15,37,23.00
2012,07,19,15,38,22.90
2012,07,19,15,39,22.80
2012,07,19,15,40,22.70
2012,07,19,15,41,22.80
2012,07,19,15,42,22.70
2012,07,19,15,43,22.80
2012,07,19,15,44,22.80
2012,07,19,15,45,22.80
2012,07,19,15,46,22.80
2012,07,19,15,47,22.80
2012,07,19,15,48,22.80
2012,07,19,15,49,22.90
2012,07,19,15,50,23.00
2012,07,19,15,51,23.00
2012,07,19,15,52,23.10
2012,07,19,15,53,23.00
2012,07,19,15,54,23.00
2012,07,19,15,55,22.90
2012,07,19,15,56,22.80
2012,07,19,15,57,22.80
2012,07,19,15,58,22.80
2012,07,19,15,59,22.90
2012,07,19,16,00,23.00
2012,07,19,16,01,23.00
2012,07,19,16,02,23.00
2012,07,19,16,03,22.90
2012,07,19,16,04,22.90
2012,07,19,16,05,22.90
2012,07,19,16,06,22.80
2012,07,19,16,07,22.80
2012,07,19,16,08,22.90
2012,07,19,16,09,22.90
2012,07,19,16,10,23.00
2012,07,19,16,11,23.10
2012,07,19,16,12,23.00
2012,07,19,16,13,23.00
2012,07,19,16,14,23.00
2012,07,19,16,15,22.90
2012,07,19,16,16,22.80
2012,07,19,16,17,22.80
2012,07,19,16,18,22.70
2012,07,19,16,19,22.70
2012,07,19,16,20,22.70
2012,07,19,16,21,22.80
2012,07,19,16,22,22.90
2012,07,19,16,23,23.00
2012,07,19,16,24,23.10
2012,07,19,16,25,23.20
2012,07,19,16,26,23.40
2012,07,19,16,27,23.50
2012,07,19,16,28,23.60
2012,07,19,16,29,23.60
2012,07,19,16,30,23.60
2012,07,19,16,31,23.60
2012,07,19,16,32,23.70
2012,07,19,16,33,23.80
2012,07,19,16,34,23.80
2012,07,19,16,35,23.90
2012,07,19,16,36,23.90
2012,07,19,16,37,23.80
2012,07,19,16,38,23.70
2012,07,19,16,39,23.70
2012,07,19,16,40,23.70
2012,07,19,16,41,23.80
2012,07,19,16,42,23.80
2012,07,19,16,43,23.80
2012,07,19,16,44,23.70
2012,07,19,16,45,23.70
2012,07,19,16,46,23.60
2012,07,19,16,47,23.50
2012,07,19,16,48,23.40
2012,07,19,16,49,23.40
2012,07,19,16,50,23.30
2012,07,19,16,51,23.30
2012,07,19,16,52,23.30
2012,07,19,16,53,23.40
2012,07,19,16,54,23.40
2012,07,19,16,55,23.60
2012,07,19,16,56,23.70
2012,07,19,16,57,23.80
2012,07,19,16,58,23.90
2012,07,19,16,59,23.90
2012,07,19,17,00,24.00
2012,07,19,17,01,24.00
2012,07,19,17,02,24.10
2012,07,19,17,03,24.10
2012,07,19,17,04,24.10
2012,07,19,17,05,24.10
2012,07,19,17,06,24.10
2012,07,19,17,07,24.20
2012,07,19,17,08,24.20
2012,07,19,17,09,24.20
2012,07,19,17,10,24.30
2012,07,19,17,11,24.30
2012,07,19,17,12,24.30
2012,07,19,17,13,24.30
2012,07,19,17,14,24.30
2012,07,19,17,15,24.30
2012,07,19,17,16,24.30
2012,07,19,17,17,24.20
2012,07,19,17,18,24.00
2012,07,19,17,19,23.90
2012,07,19,17,20,23.80
2012,07,19,17,21,23.70
2012,07,19,17,22,23.70
2012,07,19,17,23,23.70
2012,07,19,17,24,23.70
2012,07,19,17,25,23.70
2012,07,19,17,26,23.60
2012,07,19,17,27,23.50
2012,07,19,17,28,23.50
2012,07,19,17,29,23.50
2012,07,19,17,30,23.50
2012,07,19,17,31,23.50
2012,07,19,17,32,23.50
2012,07,19,17,33,23.50
2012,07,19,17,34,23.50
2012,07,19,17,35,23.50
2012,07,19,17,36,23.50
2012,07,19,17,37,23.40
2012,07,19,17,38,23.40
2012,07,19,17,39,23.40
2012,07,19,17,40,23.40
2012,07,19,17,41,23.50
2012,07,19,17,42,23.60
2012,07,19,17,43,23.60
2012,07,19,17,44,23.50
2012,07,19,17,45,23.60
2012,07,19,17,46,23.60
2012,07,19,17,47,23.70
2012,07,19,17,48,23.70
2012,07,19,17,49,23.70
2012,07,19,17,50,23.70
2012,07,19,17,51,23.60
2012,07,19,17,52,23.60
2012,07,19,17,53,23.60
2012,07,19,17,54,23.60
2012,07,19,17,55,23.60
2012,07,19,17,56,23.60
2012,07,19,17,57,23.60
2012,07,19,17,58,23.60
2012,07,19,17,59,23.60
2012,07,19,18,00,23.60
2012,07,19,18,01,23.60
2012,07,19,18,02,23.50
2012,07,19,18,03,23.40
2012,07,19,18,04,23.40
2012,07,19,18,05,23.30
2012,07,19,18,06,23.30
2012,07,19,18,07,23.30
2012,07,19,18,08,23.30
2012,07,19,18,09,23.30
2012,07,19,18,10,23.30
2012,07,19,18,11,23.30
2012,07,19,18,12,23.30
2012,07,19,18,13,23.30
2012,07,19,18,14,23.40
2012,07,19,18,15,23.40
2012,07,19,18,16,23.40
2012,07,19,18,17,23.40
2012,07,19,18,18,23.40
2012,07,19,18,19,23.40
2012,07,19,18,20,23.40
2012,07,19,18,21,23.40
2012,07,19,18,22,23.40
2012,07,19,18,23,23.40
2012,07,19,18,24,23.40
2012,07,19,18,25,23.40
2012,07,19,18,26,23.40
2012,07,19,18,27,23.40
